[Date Prev][Date Next][Thread Prev][Thread Next] - [Date Index][Thread Index][Author Index]
2 Line ISS Keps 1-21
- Subject: [sarex] 2 Line ISS Keps 1-21
- From: "Dave Larsen PhD" <doc@xxxxxxxxxxx>
- Date: Mon, 21 Jan 2002 03:56:01 -0800
ISS
1 25544U 98067A 02021.35161196 .00061502 00000-0 80862-3 0 9853
2 25544 51.6404 71.0287 0007032 337.6213 130.8727 15.57866400181127
----
Via the sarex mailing list at AMSAT.ORG courtesy of AMSAT-NA.
To unsubscribe, send "unsubscribe sarex" to Majordomo@amsat.org
AMSAT Home